SCP
0 0 0 0 0 0 0 0 0 0 0 0 0 0 0 0 0 0 0 0 0 0 0 0 0 0 0 0 0 2 2 2 2 2 2 2 2 1 1 0 0 0 0 0
0 0 0 0 0 0 0 0 0 0 0 0 0 0 0 0 0 0 0 0 0 0 0 0 0 0 0 0 0 1 2 2 2 2 2 2 1 1 1 0 0 0 0 0
0 0 0 0 0 0 0 0 0 0 0 0 0 0 0 0 0 0 0 0 0 0 0 0 0 0 0 0 0 0 1 2 2 2 2 2 1 1 1 0 0 0 0 0
0 0 0 0 0 0 0 0 0 0 0 0 0 0 0 0 0 0 0 0 0 0 0 0 0 0 0 0 0 0 0 1 2 2 2 2 1 1 1 0 0 0 0 0
0 0 0 0 0 0 0 0 0 0 0 0 0 0 0 0 0 0 0 0 0 0 0 0 0 0 0 0 0 0 0 1 1 2 2 2 2 1 1 0 0 0 0 0
0 0 0 0 0 0 0 0 0 0 0 0 0 0 0 0 0 0 0 0 0 0 0 0 0 0 0 0 0 0 0 0 1 1 2 2 2 1 1 0 0 0 0 0
0 0 0 0 0 0 0 0 0 0 0 0 0 0 0 0 0 0 0 0 0 0 0 0 0 0 0 0 0 0 0 0 0 1 1 1 1 1 1 0 0 0 0 0
0 0 0 0 0 0 0 0 0 0 0 0 0 0 0 0 0 0 0 0 0 0 0 0 0 0 0 0 0 0 0 0 0 0 0 1 1 1 0 0 0 0 0 0
0 0 0 0 0 0 0 0 0 0 0 0 0 0 0 0 0 0 0 0 0 0 0 0 0 0 0 0 0 0 0 0 0 0 0 0 0 0 0 0 0 0 0 0
0 0 0 0 0 0 0 0 0 0 0 0 0 0 0 0 0 0 0 0 0 0 0 0 0 0 0 0 0 0 0 0 0 0 0 0 0 0 0 0 0 0 0 0
0 0 0 0 0 0 0 0 0 0 0 0 0 0 0 0 0 0 0 0 0 0 0 0 0 0 0 0 0 0 0 0 0 0 0 0 0 0 0 0 0 0 0 0
0 0 0 0 0 0 0 0 0 0 0 0 0 0 0 0 0 0 0 0 0 0 0 0 0 0 0 0 0 0 0 0 0 0 0 0 0 0 0 0 0 0 0 0
0 0 0 0 0 0 0 0 0 0 0 0 0 0 0 0 0 0 0 0 0 0 0 0 0 0 0 0 0 0 0 0 0 0 0 0 0 0 0 0 0 0 0 0
0 0 0 0 0 0 0 0 0 0 0 0 0 0 0 0 0 0 0 0 0 0 0 0 0 0 0 0 0 0 0 0 0 0 0 0 0 0 0 0 0 0 0 0
0 0 0 0 0 0 0 0 0 0 0 0 0 0 0 0 0 0 0 0 0 0 0 0 0 0 0 0 0 0 0 0 0 0 0 0 0 0 0 0 0 0 0 0
0 0 0 0 0 0 0 0 0 0 0 0 0 0 0 0 0 0 0 0 0 0 0 0 0 0 0 0 0 0 0 0 0 0 0 0 0 0 0 0 0 0 0 0
0 0 0 0 0 0 0 0 0 0 0 0 0 0 0 0 0 0 0 0 0 0 0 0 0 0 0 0 0 0 0 0 0 0 0 0 0 0 0 0 0 0 0 0
0 0 0 0 0 0 0 0 0 0 0 0 0 0 0 0 0 0 0 0 0 0 0 0 0 0 0 0 0 0 0 0 0 0 0 0 0 0 0 0 0 0 0 0
0 0 0 0 0 0 0 0 0 0 0 0 0 0 0 0 0 0 0 0 0 0 0 0 0 0 0 0 0 0 0 0 0 0 0 0 0 0 0 0 0 0 0 0
0 0 0 0 0 0 0 0 0 0 0 0 0 0 0 0 0 0 0 0 0 0 0 0 0 0 0 0 0 0 0 0 0 0 0 0 0 0 0 0 0 0 0 0
0 0 0 0 0 0 0 0 0 0 0 0 0 0 0 0 0 0 0 0 0 0 0 0 0 0 0 0 0 0 0 0 0 0 0 0 0 0 0 0 0 0 0 0
0 0 0 0 0 0 0 0 0 0 0 0 0 0 0 0 0 0 0 0 0 0 0 0 0 0 0 0 0 0 0 0 0 0 0 0 0 0 0 0 0 0 0 0
0 0 0 0 0 0 0 0 0 0 0 0 0 0 0 0 0 0 0 0 0 0 0 0 0 0 0 0 0 0 0 0 0 0 0 0 0 0 0 0 0 0 0 0
0 0 0 0 0 0 0 0 0 0 0 0 0 0 0 0 0 0 0 0 0 0 0 0 0 0 0 0 0 0 0 0 0 0 0 0 0 0 0 0 0 0 0 0
0 0 0 0 0 0 0 0 0 0 0 0 0 0 0 0 0 0 0 0 0 0 0 0 0 0 0 0 0 0 0 0 0 0 0 0 0 0 0 0 0 0 0 0
0 0 0 0 0 0 0 0 0 0 0 0 0 0 0 0 0 0 0 0 0 0 0 0 0 0 0 0 0 0 0 0 0 0 0 0 0 0 0 0 0 0 0 0
Wind_Speed
3 3 3 6 6 4 3 4 7 6 3 2 7 11 12 7 5 6 5 4 4 5 4 2 2 2 1 1 1 0 1 1 1 2 3 3 2 2 2 2 3 3 3 3
3 3 5 2 2 1 2 5 6 6 3 3 6 11 10 7 6 6 5 5 5 4 3 3 2 2 2 1 1 0 0 1 1 2 2 2 3 2 2 2 3 3 3 3
5 3 0 2 1 3 4 6 6 6 5 3 5 9 5 5 3 3 3 4 4 3 3 2 2 2 1 2 1 1 0 1 1 1 2 2 2 2 2 2 2 2 3 3
3 2 0 1 3 3 6 4 4 4 3 5 1 8 8 4 5 5 4 4 4 3 3 2 2 1 1 1 2 1 0 1 1 1 2 3 3 3 3 2 2 2 3 3
3 1 1 3 3 3 4 2 2 3 3 4 3 5 10 2 5 7 5 4 4 3 3 3 2 2 1 1 1 1 0 1 1 1 3 3 2 2 1 2 3 3 2 2
3 1 2 3 1 2 1 3 2 2 2 5 6 6 10 5 7 5 5 4 3 3 2 2 2 1 1 1 1 1 0 0 1 1 2 3 3 3 2 2 2 2 2 2
3 3 2 1 1 1 2 3 3 5 2 7 2 5 11 6 5 5 6 5 3 2 2 2 2 1 1 1 1 0 0 0 0 1 1 2 2 3 3 3 2 2 1 1
2 5 3 2 3 3 3 4 5 5 5 6 3 8 9 5 4 4 4 3 2 2 2 2 2 2 2 1 1 1 1 1 0 1 1 1 2 2 2 2 2 2 1 1
5 6 1 1 1 4 3 3 3 3 2 5 7 8 9 4 4 3 3 2 2 2 2 2 2 1 1 1 1 1 1 1 0 0 1 1 1 1 2 2 2 1 1 1
5 4 3 2 0 1 3 4 3 3 2 6 8 6 7 5 5 4 3 3 3 2 2 2 1 1 1 1 1 0 0 1 1 1 1 1 0 0 1 1 2 1 1 1
2 3 4 1 5 6 3 3 3 3 4 5 6 9 5 5 4 4 4 3 2 2 2 2 1 1 1 1 1 1 1 0 1 0 0 1 0 0 1 1 1 1 1 1
3 2 4 6 4 3 5 6 6 5 6 5 5 11 2 3 3 3 4 2 1 1 1 1 1 1 2 1 1 1 1 1 0 0 0 1 1 1 1 0 1 1 1 1
5 4 2 5 3 1 3 4 5 3 3 5 7 11 1 2 3 2 3 3 2 1 1 1 1 1 1 1 2 2 2 2 1 0 0 0 0 0 0 1 1 1 1 1
3 4 7 10 7 4 5 6 5 5 5 8 13 13 9 7 7 6 4 3 2 2 2 1 1 1 1 1 1 2 2 2 1 0 1 1 1 1 1 1 1 1 1 1
4 6 7 8 7 5 9 10 10 12 12 12 13 14 14 10 8 6 4 3 2 2 2 2 2 2 1 1 2 2 3 2 1 1 1 1 1 1 1 0 1 1 1 1
4 5 3 7 6 7 11 13 13 14 13 15 15 18 12 7 3 3 4 4 4 4 3 2 2 2 2 2 2 2 3 3 1 1 1 1 1 1 1 1 1 1 1 1
5 5 4 7 4 4 14 14 16 12 10 11 16 15 6 4 5 5 5 5 5 5 3 3 2 2 2 2 2 2 2 2 1 1 1 1 1 1 2 1 1 1 2 1
7 6 4 3 2 13 12 4 8 10 11 11 10 9 6 6 4 3 4 5 5 4 3 3 2 2 2 2 2 2 2 1 1 1 1 1 1 2 2 1 1 2 2 1
8 8 5 4 8 13 10 4 6 7 11 10 12 10 7 3 2 4 4 4 5 4 3 3 2 2 1 1 1 2 2 2 2 2 2 2 2 2 2 2 2 2 2 2
4 6 6 6 7 12 9 3 3 3 9 7 9 9 7 3 3 6 2 2 2 2 1 1 0 1 1 2 1 1 2 2 3 3 3 3 2 2 3 3 3 2 2 3
5 6 9 9 10 12 6 3 5 6 9 3 6 7 6 7 7 3 1 1 1 1 1 0 0 0 1 1 0 1 2 3 4 3 3 3 3 3 3 3 2 2 2 2
10 9 9 7 9 14 4 7 9 8 2 1 3 4 5 5 3 1 1 1 1 1 1 0 0 1 1 1 0 2 3 4 3 2 3 3 3 3 2 2 2 2 2 2
10 10 8 11 11 3 6 7 5 2 2 2 2 3 4 3 3 3 2 2 1 1 1 0 0 2 2 1 1 3 4 3 2 2 3 3 3 2 2 2 2 2 2 2
5 2 4 6 8 5 5 4 3 3 3 3 2 2 3 4 4 3 2 2 1 1 1 1 1 2 3 2 2 3 3 2 1 2 3 3 3 2 2 2 2 2 3 3
6 5 5 7 6 3 5 6 5 4 2 1 1 2 3 4 4 3 2 2 2 1 1 1 1 3 4 3 4 3 3 1 2 3 3 3 3 2 2 2 3 4 4 5
7 8 9 9 7 6 6 4 3 3 4 4 3 2 2 3 3 2 2 1 1 2 1 1 2 3 3 3 4 4 2 2 2 3 3 2 2 2 2 2 3 5 5 7
Wind_Direction
29 78 206 219 208 217 207 232 263 268 280 262 253 268 277 273 267 266 271 269 266 267 279 306 334 340 16 39 39 115 128 155 154 159 162 161 168 154 138 132 129 132 131 134
44 249 238 210 196 229 242 262 271 288 305 262 279 276 270 256 243 239 245 253 259 281 312 336 353 6 16 14 5 102 125 128 159 170 171 165 160 149 145 135 130 135 138 143
196 243 220 152 219 234 252 238 251 270 312 303 309 292 266 265 250 260 252 245 255 253 271 299 323 324 7 11 343 281 212 128 171 150 138 127 124 126 136 149 150 146 148 147
241 273 208 219 236 207 260 243 246 271 296 289 312 289 279 268 283 267 261 255 259 265 267 272 276 295 323 317 331 340 181 150 162 147 146 150 163 173 181 176 167 149 149 148
249 247 179 230 241 194 241 290 256 261 239 281 252 251 279 291 273 267 259 250 254 257 248 246 242 241 255 267 289 315 42 107 140 148 152 153 152 157 155 149 150 154 147 137
251 263 218 221 278 184 182 34 21 33 76 269 234 218 274 238 238 260 255 254 260 265 257 259 261 257 285 333 355 31 42 91 99 147 147 148 157 150 136 133 153 157 151 149
301 276 254 173 80 27 89 81 10 346 330 256 230 231 256 250 245 246 251 260 267 257 250 259 270 273 280 307 324 22 39 86 70 120 142 153 162 162 163 167 167 161 162 171
236 274 230 198 182 183 202 160 173 220 250 281 270 243 258 266 277 273 258 257 266 260 254 253 252 249 248 241 245 195 208 219 139 137 143 133 147 169 173 167 167 176 178 177
199 253 291 243 260 155 167 208 188 162 279 279 263 272 290 265 282 290 283 267 260 261 271 273 286 294 288 266 259 212 198 190 170 150 114 93 118 151 164 162 153 164 160 150
173 250 280 289 2 301 182 159 125 151 212 266 277 263 257 268 266 284 285 270 279 296 304 314 319 312 322 317 317 300 193 186 174 137 120 93 80 132 163 145 142 141 153 152
167 206 291 282 205 202 168 181 181 186 197 210 272 269 231 236 251 255 266 268 269 283 290 302 317 327 338 21 39 6 354 40 66 69 123 102 84 76 94 131 139 150 162 164
177 161 252 250 246 235 210 204 179 195 232 221 247 269 268 236 264 258 273 279 271 265 282 302 324 352 13 13 6 3 350 335 276 240 139 123 116 98 100 142 158 155 158 167
155 152 287 314 309 271 234 223 215 207 198 216 233 262 297 324 313 286 267 269 264 271 290 315 327 343 355 1 353 346 336 312 291 194 130 138 140 154 207 265 239 167 165 176
164 187 205 227 239 205 238 238 214 191 217 236 239 258 276 284 284 284 271 255 250 252 258 273 296 309 327 341 344 336 325 316 297 202 181 212 235 235 229 256 283 239 192 183
165 220 235 256 264 244 243 243 226 222 226 236 253 255 263 263 260 261 260 252 250 269 277 271 281 296 305 321 326 332 326 322 311 238 219 246 263 265 254 259 284 266 215 213
176 210 227 265 262 256 260 247 235 238 239 246 259 265 262 267 257 254 250 246 249 252 252 259 279 296 290 293 307 317 319 323 320 274 261 284 293 283 271 270 275 270 248 239
185 176 205 254 273 296 261 234 223 227 222 221 241 253 264 262 252 245 241 234 237 239 243 250 261 267 277 290 292 286 301 326 330 295 284 283 275 272 271 274 279 267 257 246
194 194 210 237 235 246 251 201 207 227 241 225 239 254 246 234 248 256 231 222 233 239 246 258 266 276 290 301 312 312 317 316 319 305 291 279 267 269 276 269 267 276 269 253
200 190 199 205 240 266 275 238 190 209 253 231 233 246 249 227 304 283 239 214 223 231 236 241 242 259 291 307 312 321 316 324 324 309 294 287 268 265 270 267 269 269 269 261
198 189 195 206 225 246 254 220 188 159 264 236 217 236 239 197 254 267 243 195 220 232 234 250 311 345 315 307 328 325 308 319 305 301 298 293 282 259 255 258 262 266 268 263
176 197 210 218 237 256 248 191 138 187 249 241 213 221 208 210 228 239 160 159 203 229 257 307 84 294 286 305 359 297 296 285 290 306 308 301 289 271 255 255 258 261 267 273
184 190 204 199 228 249 189 153 191 226 265 228 221 213 207 222 236 235 228 227 224 272 307 64 125 300 313 315 268 285 281 288 309 316 309 302 295 286 269 263 271 270 261 265
202 197 196 202 222 237 170 198 225 236 237 247 226 228 205 223 240 245 248 241 240 237 267 307 260 292 308 304 271 270 287 305 318 315 301 298 293 287 279 260 259 267 252 248
234 206 199 238 254 246 230 244 253 243 242 254 231 219 204 220 232 235 231 235 240 271 276 282 273 279 290 298 294 279 290 299 293 289 293 297 296 293 284 269 252 245 242 243
208 181 204 241 262 282 260 241 243 251 247 245 246 226 214 204 223 223 228 242 256 279 291 271 257 269 282 297 297 297 292 287 282 286 289 292 288 277 273 263 248 252 243 241
196 193 198 227 219 212 240 230 213 216 228 223 220 244 232 200 206 202 220 244 260 272 285 283 279 280 289 295 294 297 292 269 261 278 281 278 281 275 267 272 290 279 276 279